TimeICT,TemperatureF,Dew PointF,Humidity,Sea Level PressureIn,VisibilityMPH,Wind Direction,Wind SpeedMPH,Gust SpeedMPH,PrecipitationIn,Events,Conditions,WindDirDegrees,DateUTC
12:00 AM,78.8,68.0,69,29.83,6.2,NNE,2.3,-,N/A,,Scattered Clouds,20,2012-10-24 17:00:00
1:00 AM,77,69,70,29.81,6,NE,2.3,,,,Scattered Clouds,40,2012-10-24 18:00:00
1:00 AM,77.0,69.8,78,29.80,6.2,NE,2.3,-,N/A,,Scattered Clouds,40,2012-10-24 18:00:00
2:00 AM,75.2,68.0,78,29.80,6.2,NE,3.5,-,N/A,,Scattered Clouds,50,2012-10-24 19:00:00
4:00 AM,73.4,69.8,88,29.80,-9999.0,East,3.5,-,N/A,,Clear,80,2012-10-24 21:00:00
5:00 AM,73.4,69.8,88,29.80,-9999.0,ENE,3.5,-,N/A,,Clear,60,2012-10-24 22:00:00
6:30 AM,73.4,69.8,88,29.83,5.6,NNE,2.3,-,N/A,,Unknown,30,2012-10-24 23:30:00
7:00 AM,75,70,81,29.85,6,NE,3.5,,,,Mist,40,2012-10-25 00:00:00
7:00 AM,75.2,69.8,83,29.83,5.6,NE,3.5,-,N/A,,Unknown,40,2012-10-25 00:00:00
8:00 AM,80.6,71.6,74,29.86,5.6,NE,2.3,-,N/A,,Unknown,50,2012-10-25 01:00:00
9:00 AM,82.4,68.0,62,29.86,-9999.0,NE,4.6,-,N/A,,Clear,50,2012-10-25 02:00:00
10:00 AM,86.0,71.6,62,29.86,-9999.0,NE,2.3,-,N/A,,Clear,40,2012-10-25 03:00:00
11:00 AM,89.6,69.8,52,29.83,-9999.0,NE,6.9,-,N/A,,Partly Cloudy,50,2012-10-25 04:00:00
12:00 PM,91.4,71.6,52,29.80,-9999.0,East,4.6,-,N/A,,Partly Cloudy,100,2012-10-25 05:00:00
1:00 PM,91,69,39,29.78,6,NE,5.8,,,,Partly Cloudy,50,2012-10-25 06:00:00
1:00 PM,91.4,71.6,52,29.77,-9999.0,NE,5.8,-,N/A,,Scattered Clouds,50,2012-10-25 06:00:00
2:00 PM,91.4,69.8,49,29.74,6.2,NE,3.5,-,N/A,,Scattered Clouds,50,2012-10-25 07:00:00
3:00 PM,93.2,68.0,44,29.71,6.2,North,3.5,-,N/A,,Partly Cloudy,10,2012-10-25 08:00:00
4:00 PM,93.2,66.2,41,29.71,6.2,NNE,4.6,-,N/A,,Partly Cloudy,30,2012-10-25 09:00:00
5:00 PM,91.4,66.2,43,29.71,6.2,NNE,3.5,-,N/A,,Partly Cloudy,20,2012-10-25 10:00:00
5:30 PM,89.6,69.8,52,29.71,6.2,North,3.5,-,N/A,,Partly Cloudy,350,2012-10-25 10:30:00
6:00 PM,87.8,68.0,52,29.71,6.2,North,2.3,-,N/A,,Partly Cloudy,10,2012-10-25 11:00:00
7:00 PM,85,69,50,29.74,6,North,3.5,,,,Haze,10,2012-10-25 12:00:00
7:00 PM,86.0,69.8,58,29.74,5.6,North,3.5,-,N/A,,Partly Cloudy,10,2012-10-25 12:00:00
8:00 PM,84.2,68.0,58,29.77,5.6,North,2.3,-,N/A,,Partly Cloudy,10,2012-10-25 13:00:00
9:00 PM,82.4,69.8,66,29.80,5.6,NNE,3.5,-,N/A,,Unknown,30,2012-10-25 14:00:00
10:00 PM,80.6,68.0,65,29.83,5.0,NNE,3.5,-,N/A,,Unknown,30,2012-10-25 15:00:00